GW1213 Weather Reports


time (UTC)temp
C
wind
direction
speed
KPH
gust
KPH
rain 1hr
cm
rain 24hr
cm
rain mn
cm
humidity
%
barometer
mb
20260906002538 23 0 0.0 0.0 0.00 0.46 0.46 94 1010.6
20260906002038 23 0 0.0 0.0 0.00 0.46 0.46 94 1010.5
20260906001559 23 0 0.0 0.0 0.00 0.46 0.46 94 1010.4
20260906001034 23 0 0.0 0.0 0.00 0.46 0.46 94 1010.4
20260906000537 23 0 0.0 0.0 0.00 0.46 0.46 93 1010.4
20260906000110 23 0 0.0 0.0 0.00 0.46 0.46 93 1010.3
20260905235541 23 0 0.0 0.0 0.00 0.46 0.46 92 1010.4
20260905235034 23 0 0.0 0.0 0.00 0.46 0.46 92 1010.4
20260905234601 23 0 0.0 0.0 0.00 0.46 0.46 92 1010.4
20260905234039 23 0 0.0 0.0 0.00 0.46 0.46 92 1010.4
20260905233538 23 0 0.0 0.0 0.00 0.46 0.46 92 1010.5
20260905233103 24 0 0.0 0.0 0.00 0.46 0.46 91 1010.5
20260905232537 24 0 0.0 0.0 0.00 0.46 0.46 91 1010.6
20260905232037 24 0 0.0 0.0 0.00 0.46 0.46 91 1010.4
20260905231618 24 0 0.0 0.0 0.00 0.46 0.46 90 1010.4
20260905231040 25 0 0.0 0.0 0.00 0.46 0.46 89 1010.4
20260905230538 25 0 0.0 0.0 0.00 0.46 0.46 88 1010.4
20260905230107 25 0 0.0 0.0 0.00 0.46 0.46 87 1010.2
20260905225536 25 0 0.0 0.0 0.00 0.46 0.46 87 1010.2
20260905225037 25 0 0.0 0.0 0.00 0.46 0.46 86 1010.2
20260905224602 25 0 0.0 0.0 0.00 0.46 0.46 86 1010.4
20260905224041 26 0 0.0 0.0 0.00 0.46 0.46 84 1010.3
20260905223536 26 0 0.0 0.0 0.00 0.46 0.46 82 1010.3
20260905223102 26 0 0.0 0.0 0.00 0.46 0.46 82 1010.3
20260905222536 26 0 0.0 0.0 0.00 0.46 0.46 82 1010.3
20260905222036 26 0 0.0 4.8 0.00 0.46 0.46 82 1010.1
20260905221619 26 0 0.0 6.4 0.00 0.46 0.46 82 1010.2
20260905221039 26 0 1.6 6.4 0.00 0.46 0.46 81 1010.2
20260905220537 26 0 0.0 0.0 0.00 0.46 0.46 83 1010.1
20260905220058 25 0 0.0 1.6 0.00 0.46 0.46 82 1010.1
20260905215537 25 0 0.0 4.8 0.00 0.46 0.46 83 1010.0
20260905215037 25 0 1.6 4.8 0.00 0.46 0.46 82 1009.8
20260905214609 25 0 0.0 1.6 0.00 0.46 0.46 84 1009.8
20260905214038 25 0 0.0 1.6 0.00 0.46 0.46 82 1010.1
20260905213538 25 0 0.0 4.8 0.00 0.46 0.46 83 1010.0
20260905213106 25 0 0.0 4.8 0.00 0.46 0.46 84 1010.0
20260905212537 25 0 0.0 6.4 0.00 0.46 0.46 84 1010.1
20260905212037 25 0 0.0 6.4 0.00 0.46 0.46 82 1010.0
20260905211558 25 209 0.0 3.2 0.00 0.46 0.46 84 1009.9
20260905211037 25 0 0.0 3.2 0.00 0.46 0.46 84 1009.9
20260905210540 25 0 0.0 3.2 0.00 0.46 0.46 84 1009.9
20260905210111 25 0 0.0 1.6 0.00 0.46 0.46 86 1009.8
20260905205537 25 0 0.0 3.2 0.00 0.46 0.46 86 1009.8
20260905205037 25 0 0.0 3.2 0.00 0.46 0.46 85 1009.8
20260905204559 25 232 0.0 3.2 0.00 0.46 0.46 86 1009.9
20260905204037 24 0 0.0 3.2 0.00 0.46 0.46 86 1009.8
20260905203537 24 0 0.0 6.4 0.00 0.46 0.46 86 1009.9
20260905203102 24 105 0.0 6.4 0.00 0.46 0.46 87 1009.9
20260905202538 24 214 1.6 6.4 0.00 0.46 0.46 86 1009.8
20260905202038 24 0 0.0 8.0 0.00 0.46 0.46 87 1009.8
20260905201601 24 0 1.6 8.0 0.00 0.46 0.46 87 1009.9
20260905201037 24 0 1.6 8.0 0.00 0.46 0.46 87 1010.0
20260905200542 24 255 1.6 8.0 0.00 0.46 0.46 87 1010.0
20260905200128 24 0 1.6 9.7 0.00 0.46 0.46 87 1010.0
20260905195535 25 173 1.6 9.7 0.00 0.46 0.46 86 1009.9
20260905195034 25 169 1.6 12.9 0.00 0.46 0.46 86 1010.1
20260905194556 25 274 0.0 12.9 0.00 0.46 0.46 86 1010.2
20260905194038 25 238 0.0 9.7 0.00 0.46 0.46 87 1010.1
20260905193538 25 0 1.6 8.0 0.00 0.46 0.46 88 1010.2
20260905193058 25 0 1.6 9.7 0.00 0.46 0.46 88 1010.3
20260905192538 25 217 1.6 9.7 0.00 0.46 0.46 88 1010.4
20260905192037 24 0 1.6 9.7 0.00 0.46 0.46 91 1010.3
20260905191600 24 231 1.6 8.0 0.00 0.46 0.46 90 1010.3
20260905191037 23 0 3.2 8.0 0.00 0.46 0.46 90 1010.4
20260905190538 24 151 3.2 8.0 0.00 0.46 0.46 92 1010.4
20260905190100 23 143 1.6 6.4 0.00 0.46 0.46 94 1010.4
20260905185543 23 0 0.0 6.4 0.00 0.46 0.46 94 1010.5
20260905185039 23 260 0.0 11.3 0.00 0.46 0.46 94 1010.6
20260905184609 23 0 0.0 11.3 0.00 0.46 0.46 94 1010.6
20260905184041 23 185 1.6 9.7 0.00 0.46 0.46 94 1010.8
20260905183538 23 195 3.2 14.5 0.00 0.46 0.46 94 1011.0
20260905183102 23 217 4.8 14.5 0.00 0.46 0.46 94 1011.1
20260905182537 23 186 3.2 12.9 0.00 0.46 0.46 95 1011.0
20260905182042 23 259 4.8 12.9 0.00 0.46 0.46 95 1010.8
20260905181600 23 225 1.6 8.0 0.00 0.46 0.46 96 1010.9
20260905181039 23 0 0.0 0.0 0.00 0.46 0.46 96 1010.7
20260905180534 22 0 0.0 0.0 0.03 0.46 0.46 96 1010.3
20260905180113 22 0 0.0 0.0 0.03 0.46 0.46 95 1010.2
20260905175537 22 0 0.0 0.0 0.08 0.46 0.46 95 1010.2
20260905175037 22 0 0.0 3.2 0.10 0.46 0.46 95 1010.2
20260905174602 22 0 0.0 6.4 0.13 0.46 0.46 95 1010.2
20260905174038 22 0 1.6 6.4 0.18 0.46 0.46 94 1009.9
20260905173538 22 128 0.0 6.4 0.25 0.46 0.46 95 1010.0
20260905173124 22 0 1.6 6.4 0.41 0.46 0.46 94 1010.1
20260905172536 22 54 0.0 0.0 0.43 0.46 0.46 95 1010.5
20260905172036 22 0 0.0 0.0 0.46 0.46 0.46 95 1010.7
20260905171559 22 0 0.0 0.0 0.46 0.46 0.46 94 1010.8
20260905171036 22 0 0.0 6.4 0.46 0.46 0.46 94 1010.8
20260905170538 22 0 0.0 8.0 0.43 0.43 0.43 94 1010.9
20260905170106 22 63 3.2 8.0 0.43 0.43 0.43 93 1011.0
20260905165536 22 71 4.8 8.0 0.38 0.38 0.38 92 1011.2
20260905165038 22 77 3.2 8.0 0.36 0.36 0.36 91 1011.4
20260905164611 23 65 1.6 4.8 0.33 0.33 0.33 89 1011.7
20260905164038 23 138 0.0 11.3 0.28 0.28 0.28 88 1011.9
20260905163536 23 0 1.6 11.3 0.20 0.20 0.20 86 1012.6
20260905163101 25 240 3.2 11.3 0.05 0.05 0.05 83 1013.0
20260905162538 25 254 1.6 4.8 0.03 0.03 0.03 84 1013.0
20260905162038 25 274 0.0 0.0 0.00 0.00 0.00 83 1012.4
20260905161559 25 0 0.0 0.0 0.00 0.00 0.00 81 1012.2
20260905161037 25 0 0.0 3.2 0.00 0.00 0.00 80 1012.1
20260905160539 26 0 0.0 4.8 0.00 0.00 0.00 79 1012.0
20260905160059 26 0 0.0 4.8 0.00 0.00 0.00 79 1012.0
20260905155538 26 352 1.6 4.8 0.00 0.00 0.00 79 1012.0
20260905155037 26 0 0.0 3.2 0.00 0.00 0.00 79 1012.0
20260905154606 26 0 0.0 3.2 0.00 0.00 0.00 78 1011.9
20260905154038 26 352 0.0 6.4 0.00 0.00 0.00 78 1011.8
20260905153537 26 0 0.0 6.4 0.00 0.00 0.00 78 1011.7
20260905153100 26 346 3.2 6.4 0.00 0.00 0.00 77 1011.6
20260905152538 26 16 1.6 6.4 0.00 0.00 0.00 77 1011.6
20260905152036 26 352 1.6 6.4 0.00 0.00 0.00 77 1011.6
20260905151605 26 360 0.0 6.4 0.00 0.00 0.00 76 1011.6
20260905151038 26 0 0.0 4.8 0.00 0.00 0.00 77 1011.7
20260905150538 26 329 0.0 3.2 0.00 0.00 0.00 77 1011.8
20260905150100 26 352 0.0 3.2 0.00 0.00 0.00 78 1011.9
20260905145540 26 0 0.0 3.2 0.00 0.00 0.00 78 1011.8
20260905145038 26 320 0.0 3.2 0.00 0.00 0.00 78 1011.7
20260905144558 26 323 0.0 3.2 0.00 0.00 0.00 78 1011.9
20260905144034 26 0 0.0 1.6 0.00 0.00 0.00 80 1011.9
20260905143541 26 0 0.0 1.6 0.00 0.00 0.00 80 1011.9
20260905143103 26 331 0.0 1.6 0.00 0.00 0.00 80 1011.9
20260905142537 26 0 0.0 0.0 0.00 0.00 0.00 81 1011.8
20260905142038 26 0 0.0 0.0 0.00 0.00 0.00 79 1011.8
20260905141558 26 0 0.0 3.2 0.00 0.00 0.00 80 1011.7
20260905141040 26 0 0.0 4.8 0.00 0.00 0.00 79 1011.7
20260905140535 26 0 0.0 4.8 0.00 0.00 0.00 79 1011.6
20260905135540 26 0 0.0 0.0 0.00 0.00 0.00 80 1011.5
20260905135036 26 0 0.0 1.6 0.00 0.00 0.00 80 1011.3
20260905134602 26 0 0.0 4.8 0.00 0.00 0.00 81 1011.4
20260905134038 26 0 0.0 4.8 0.00 0.00 0.00 81 1011.2
20260905133538 25 355 1.6 4.8 0.00 0.00 0.00 81 1011.2
20260905133102 25 52 0.0 3.2 0.00 0.00 0.00 82 1011.1
20260905132535 25 0 0.0 3.2 0.00 0.00 0.00 82 1011.2
20260905132041 25 352 0.0 3.2 0.00 0.00 0.00 84 1011.2
20260905131600 24 326 1.6 3.2 0.00 0.00 0.00 85 1011.3
20260905131037 24 0 0.0 8.0 0.00 0.00 0.00 86 1011.3
20260905130540 23 0 0.0 8.0 0.00 0.00 0.00 88 1011.2
20260905130057 23 0 0.0 0.0 0.00 0.00 0.00 88 1011.2
20260905125537 23 0 0.0 0.0 0.00 0.00 0.00 89 1011.2
20260905125037 23 0 0.0 0.0 0.00 0.00 0.00 90 1011.2
20260905124559 23 0 0.0 0.0 0.00 0.00 0.00 91 1011.3
20260905124037 22 0 0.0 0.0 0.00 0.00 0.00 90 1011.1
20260905123537 22 0 0.0 0.0 0.00 0.00 0.00 91 1011.2
20260905123106 22 0 0.0 0.0 0.00 0.00 0.00 91 1011.1
20260905122538 22 0 0.0 0.0 0.00 0.00 0.00 92 1011.1
20260905122037 22 0 0.0 0.0 0.00 0.00 0.00 92 1011.0
20260905121602 22 0 0.0 0.0 0.00 0.00 0.00 94 1011.1
20260905121038 22 0 0.0 0.0 0.00 0.00 0.00 93 1011.1
20260905120540 22 0 0.0 0.0 0.00 0.00 0.00 93 1011.2
20260905120110 22 0 0.0 0.0 0.00 0.00 0.00 94 1011.2
20260905115537 22 0 0.0 0.0 0.00 0.00 0.00 94 1011.2
20260905115037 22 0 0.0 0.0 0.00 0.00 0.00 95 1011.2
20260905114609 21 0 0.0 0.0 0.00 0.00 0.00 96 1010.9
20260905114037 21 0 0.0 0.0 0.00 0.00 0.00 96 1011.0
20260905113540 21 0 0.0 0.0 0.00 0.00 0.00 96 1011.0
20260905113105 21 0 0.0 0.0 0.00 0.00 0.00 97 1011.0
20260905112538 21 0 0.0 0.0 0.00 0.00 0.00 96 1011.0
20260905112036 21 0 0.0 0.0 0.00 0.00 0.00 97 1011.0
20260905111655 21 0 0.0 0.0 0.00 0.00 0.00 96 1011.0
20260905111037 21 0 0.0 0.0 0.00 0.00 0.00 96 1010.9
20260905110537 21 0 0.0 0.0 0.00 0.00 0.00 96 1010.7
20260905110058 21 0 0.0 0.0 0.00 0.00 0.00 96 1010.5
20260905105536 21 0 0.0 0.0 0.00 0.00 0.00 96 1010.4
20260905105035 21 0 0.0 0.0 0.00 0.00 0.00 96 1010.4
20260905104555 21 0 0.0 0.0 0.00 0.00 0.00 96 1010.4
20260905104037 21 0 0.0 0.0 0.00 0.00 0.00 96 1010.3
20260905103538 21 0 0.0 0.0 0.00 0.00 0.00 96 1010.2
20260905103103 21 0 0.0 0.0 0.00 0.00 0.00 96 1010.2
20260905102534 21 0 0.0 0.0 0.00 0.00 0.00 95 1010.2
20260905102037 21 0 0.0 0.0 0.00 0.00 0.00 95 1010.1
20260905101607 21 0 0.0 0.0 0.00 0.00 0.00 95 1010.1
20260905101035 21 0 0.0 0.0 0.00 0.00 0.00 95 1010.0
20260905100538 21 0 0.0 0.0 0.00 0.00 0.00 95 1010.1
20260905100104 21 0 0.0 0.0 0.00 0.00 0.00 95 1010.1
20260905095535 21 0 0.0 0.0 0.00 0.00 0.00 95 1010.0
20260905095035 21 0 0.0 0.0 0.00 0.00 0.00 95 1009.9
20260905094559 21 0 0.0 0.0 0.00 0.00 0.00 95 1009.8
20260905094038 21 0 0.0 0.0 0.00 0.00 0.00 95 1009.7
20260905093535 21 0 0.0 0.0 0.00 0.00 0.00 95 1009.7
20260905093121 21 0 0.0 0.0 0.00 0.00 0.00 95 1009.7
20260905092535 21 0 0.0 0.0 0.00 0.00 0.00 95 1009.6
20260905092037 21 0 0.0 0.0 0.00 0.00 0.00 95 1009.6
20260905091556 21 0 0.0 0.0 0.00 0.00 0.00 95 1009.7
20260905091039 21 0 0.0 0.0 0.00 0.00 0.00 95 1009.7
20260905090541 21 0 0.0 0.0 0.00 0.00 0.00 94 1009.7
20260905085536 21 0 0.0 0.0 0.00 0.00 0.00 95 1009.8
20260905085037 21 0 0.0 0.0 0.00 0.00 0.00 94 1009.8
20260905084602 21 0 0.0 0.0 0.00 0.00 0.00 94 1009.8
20260905084038 21 0 0.0 0.0 0.00 0.00 0.00 94 1009.9
20260905083537 21 0 0.0 0.0 0.00 0.00 0.00 94 1009.9
20260905083059 21 0 0.0 0.0 0.00 0.00 0.00 94 1009.9
20260905082535 21 0 0.0 0.0 0.00 0.00 0.00 94 1010.1
20260905082037 21 0 0.0 0.0 0.00 0.00 0.00 94 1010.2
20260905081556 21 0 0.0 0.0 0.00 0.00 0.00 94 1010.1
20260905081038 21 0 0.0 0.0 0.00 0.00 0.00 94 1010.1
20260905080537 21 0 0.0 0.0 0.00 0.00 0.00 94 1010.2
20260905075537 21 0 0.0 0.0 0.00 0.00 0.00 94 1010.4
20260905075037 21 0 0.0 0.0 0.00 0.00 0.00 94 1010.4
20260905074601 21 0 0.0 0.0 0.00 0.00 0.00 94 1010.4
20260905074038 21 0 0.0 0.0 0.00 0.00 0.00 93 1010.4
20260905073537 21 0 0.0 0.0 0.00 0.00 0.00 93 1010.5
20260905073104 21 0 0.0 0.0 0.00 0.00 0.00 93 1010.5
20260905072537 21 0 0.0 0.0 0.00 0.00 0.00 93 1010.5
20260905072038 21 0 0.0 0.0 0.00 0.00 0.00 93 1010.5
20260905071603 21 0 0.0 0.0 0.00 0.00 0.00 93 1010.5
20260905071037 21 0 0.0 0.0 0.00 0.00 0.00 93 1010.7
20260905070538 21 0 0.0 0.0 0.00 0.00 0.00 93 1010.6
20260905070107 21 0 0.0 0.0 0.00 0.00 0.00 93 1010.7
20260905065540 21 0 0.0 0.0 0.00 0.00 0.00 93 1010.7
20260905065038 21 0 0.0 0.0 0.00 0.00 0.00 93 1010.8
20260905064626 22 0 0.0 0.0 0.00 0.00 0.00 93 1010.8
20260905064037 22 0 0.0 0.0 0.00 0.00 0.00 93 1011.0
20260905063538 22 0 0.0 0.0 0.00 0.00 0.00 92 1011.1
20260905063102 22 0 0.0 0.0 0.00 0.00 0.00 92 1011.2
20260905062536 22 0 0.0 0.0 0.00 0.00 0.00 92 1011.2
20260905062039 22 0 0.0 0.0 0.00 0.00 0.00 92 1011.3
20260905061556 22 0 0.0 0.0 0.00 0.00 0.00 92 1011.3
20260905061036 22 0 0.0 0.0 0.00 0.00 0.00 92 1011.3
20260905060538 22 0 0.0 0.0 0.00 0.00 0.00 92 1011.4
20260905060106 22 0 0.0 0.0 0.00 0.00 0.00 92 1011.5
20260905055537 22 0 0.0 0.0 0.00 0.43 0.00 91 1011.7
20260905055038 22 0 0.0 0.0 0.00 0.43 0.00 91 1011.7
20260905054602 22 0 0.0 0.0 0.00 0.43 0.00 91 1011.8
20260905054042 22 0 0.0 0.0 0.00 0.43 0.00 91 1011.8
20260905053538 22 0 0.0 0.0 0.00 0.43 0.00 91 1011.8
20260905053101 22 0 0.0 0.0 0.00 0.43 0.00 91 1011.8
20260905052539 22 0 0.0 0.0 0.00 0.43 0.00 91 1011.9
20260905052036 22 0 0.0 0.0 0.00 0.43 0.00 91 1012.0
20260905051557 22 0 0.0 0.0 0.00 0.43 0.00 91 1012.0
20260905051036 22 0 0.0 0.0 0.00 0.43 0.00 91 1012.1
20260905050536 22 0 0.0 0.0 0.00 0.43 0.00 91 1012.0
20260905050107 22 0 0.0 0.0 0.00 0.43 0.00 91 1012.1
20260905045537 22 0 0.0 0.0 0.00 0.43 0.00 91 1012.3
20260905045038 22 0 0.0 0.0 0.00 0.43 0.00 92 1012.2
20260905044601 22 0 0.0 0.0 0.00 0.43 0.00 92 1012.1
20260905044038 22 0 0.0 0.0 0.00 0.43 0.00 92 1012.1
20260905043539 22 0 0.0 0.0 0.00 0.43 0.00 92 1012.1
20260905043104 22 0 0.0 0.0 0.00 0.43 0.00 92 1012.1
20260905042537 22 0 0.0 0.0 0.00 0.43 0.00 92 1012.1
20260905042036 22 0 0.0 0.0 0.00 0.43 0.00 92 1012.3
20260905041601 22 0 0.0 0.0 0.00 0.43 0.00 92 1012.3
20260905041038 22 0 0.0 0.0 0.00 0.43 0.00 92 1012.3
20260905040539 22 0 0.0 0.0 0.00 0.43 0.00 92 1012.5
20260905040105 22 0 0.0 0.0 0.00 0.43 0.00 92 1012.5
20260905035538 22 0 0.0 0.0 0.00 0.43 0.43 92 1012.4
20260905035038 22 0 0.0 0.0 0.00 0.43 0.43 92 1012.4
20260905034609 22 0 0.0 0.0 0.00 0.43 0.43 92 1012.4
20260905034041 23 0 0.0 0.0 0.00 0.43 0.43 92 1012.4
20260905033537 23 0 0.0 0.0 0.00 0.43 0.43 92 1012.2
20260905033059 23 0 0.0 0.0 0.00 0.43 0.43 91 1012.3
20260905032536 23 0 0.0 0.0 0.00 0.43 0.43 91 1012.2
20260905032035 23 0 0.0 0.0 0.00 0.43 0.43 92 1012.3
20260905031557 23 0 0.0 0.0 0.00 0.43 0.43 92 1012.3
20260905031035 23 0 0.0 0.0 0.00 0.43 0.43 92 1012.3
20260905030537 23 0 0.0 0.0 0.00 0.43 0.43 92 1012.4
20260905030118 23 0 0.0 0.0 0.00 0.43 0.43 92 1012.4
20260905025537 23 0 0.0 0.0 0.00 0.43 0.43 92 1012.3
20260905025038 23 0 0.0 0.0 0.00 0.43 0.43 92 1012.3
20260905024605 23 0 0.0 0.0 0.00 0.43 0.43 92 1012.3
20260905024036 23 0 0.0 0.0 0.00 0.43 0.43 91 1012.4
20260905023537 23 0 0.0 0.0 0.00 0.43 0.43 91 1012.4
20260905023056 23 0 0.0 0.0 0.00 0.43 0.43 91 1012.5
20260905022538 23 0 0.0 0.0 0.00 0.43 0.43 91 1012.6
20260905022035 23 0 0.0 0.0 0.00 0.43 0.43 92 1012.5
20260905021608 23 0 0.0 0.0 0.00 0.43 0.43 91 1012.3
20260905021037 23 0 0.0 0.0 0.00 0.43 0.43 91 1012.3
20260905020539 23 0 0.0 0.0 0.00 0.43 0.43 91 1012.4
20260905020106 23 0 0.0 0.0 0.00 0.43 0.43 91 1012.4
20260905015537 23 0 0.0 0.0 0.00 0.43 0.43 91 1012.1
20260905015043 23 0 0.0 0.0 0.00 0.43 0.43 91 1012.0
20260905014603 23 0 0.0 0.0 0.00 0.43 0.43 90 1012.0
20260905014035 23 0 0.0 0.0 0.00 0.43 0.43 90 1012.1
20260905013538 23 0 0.0 0.0 0.00 0.43 0.43 90 1011.9
20260905013100 23 0 0.0 0.0 0.00 0.43 0.43 89 1011.9
20260905012540 23 0 0.0 0.0 0.00 0.43 0.43 89 1011.9
20260905012038 24 0 0.0 0.0 0.00 0.43 0.43 88 1011.9
20260905011607 24 0 0.0 0.0 0.00 0.43 0.43 88 1011.9
20260905011037 24 0 0.0 0.0 0.00 0.43 0.43 87 1011.9
20260905010540 24 0 0.0 0.0 0.00 0.43 0.43 87 1011.7
20260905010058 24 0 0.0 0.0 0.00 0.43 0.43 86 1011.6
20260905005537 24 0 0.0 0.0 0.00 0.43 0.43 86 1011.5
20260905005037 24 0 0.0 0.0 0.00 0.43 0.43 85 1011.4
20260905004608 24 0 0.0 0.0 0.00 0.43 0.43 85 1011.4
20260905004038 25 0 0.0 0.0 0.00 0.43 0.43 85 1011.3
20260905003539 25 0 0.0 0.0 0.00 0.43 0.43 84 1011.3
20260905003102 25 0 0.0 4.8 0.00 0.43 0.43 84 1011.2